Time,TemperatureF,DewpointF,PressureIn,WindDirection,WindDirectionDegrees,WindSpeedMPH,WindSpeedGustMPH,Humidity,HourlyPrecipIn,Conditions,Clouds,dailyrainin,SoftwareType,DateUTC
2013-07-06 00:05:00,65.9,63.8,30.20,NW,313,0.0,0.0,93,0.00,,,0.00,Wunderground v.1.15,2013-07-06 04:05:00,
2013-07-06 00:10:00,65.8,63.7,30.19,NW,313,0.0,0.0,93,0.00,,,0.00,Wunderground v.1.15,2013-07-06 04:10:00,
2013-07-06 00:15:00,65.7,63.6,30.19,NW,313,0.0,0.0,93,0.00,,,0.00,Wunderground v.1.15,2013-07-06 04:15:00,
2013-07-06 00:25:00,65.7,63.6,30.19,NW,313,0.0,0.0,93,0.00,,,0.00,Wunderground v.1.15,2013-07-06 04:25:00,
2013-07-06 00:30:00,65.7,63.6,30.19,NW,313,0.0,0.0,93,0.00,,,0.00,Wunderground v.1.15,2013-07-06 04:30:00,
2013-07-06 00:35:00,65.6,63.5,30.19,NW,313,0.0,0.0,93,0.00,,,0.00,Wunderground v.1.15,2013-07-06 04:35:00,
2013-07-06 00:40:00,65.6,63.5,30.19,NW,313,0.0,0.0,93,0.00,,,0.00,Wunderground v.1.15,2013-07-06 04:40:00,
2013-07-06 00:45:00,65.6,63.5,30.19,NW,313,0.0,0.0,93,0.00,,,0.00,Wunderground v.1.15,2013-07-06 04:45:00,
2013-07-06 00:55:00,65.5,63.4,30.19,NW,313,0.0,0.0,93,0.00,,,0.00,Wunderground v.1.15,2013-07-06 04:55:00,
2013-07-06 01:00:00,65.4,63.6,30.19,NW,313,0.0,0.0,94,0.00,,,0.00,Wunderground v.1.15,2013-07-06 05:00:00,
2013-07-06 01:10:00,65.4,63.6,30.19,NW,313,0.0,0.0,94,0.00,,,0.00,Wunderground v.1.15,2013-07-06 05:10:00,
2013-07-06 01:15:00,65.3,63.5,30.19,NW,313,0.0,0.0,94,0.00,,,0.00,Wunderground v.1.15,2013-07-06 05:15:00,
2013-07-06 01:25:00,65.2,63.4,30.19,NW,313,0.0,0.0,94,0.00,,,0.00,Wunderground v.1.15,2013-07-06 05:25:00,
2013-07-06 01:30:00,65.3,63.5,30.19,NW,313,0.0,0.0,94,0.00,,,0.00,Wunderground v.1.15,2013-07-06 05:30:00,
2013-07-06 01:40:00,65.3,63.5,30.19,NW,313,0.0,0.0,94,0.00,,,0.00,Wunderground v.1.15,2013-07-06 05:40:00,
2013-07-06 01:45:00,65.2,63.4,30.18,NW,313,0.0,0.0,94,0.00,,,0.00,Wunderground v.1.15,2013-07-06 05:45:00,
2013-07-06 01:50:00,65.2,63.4,30.18,NW,313,0.0,0.0,94,0.00,,,0.00,Wunderground v.1.15,2013-07-06 05:50:00,
2013-07-06 01:55:00,65.1,63.3,30.19,NW,313,0.0,0.0,94,0.00,,,0.00,Wunderground v.1.15,2013-07-06 05:55:00,
2013-07-06 02:00:00,65.1,63.3,30.18,NW,313,0.0,0.0,94,0.00,,,0.00,Wunderground v.1.15,2013-07-06 06:00:00,
2013-07-06 02:10:00,65.0,63.2,30.18,NW,313,0.0,0.0,94,0.00,,,0.00,Wunderground v.1.15,2013-07-06 06:10:00,
2013-07-06 02:15:00,64.9,63.1,30.18,NW,313,0.0,0.0,94,0.00,,,0.00,Wunderground v.1.15,2013-07-06 06:15:00,
2013-07-06 02:25:00,64.8,63.0,30.18,NW,313,0.0,0.0,94,0.00,,,0.00,Wunderground v.1.15,2013-07-06 06:25:00,
2013-07-06 02:30:00,64.8,63.0,30.18,NW,313,0.0,0.0,94,0.00,,,0.00,Wunderground v.1.15,2013-07-06 06:30:00,
2013-07-06 02:40:00,64.6,62.8,30.18,NW,313,0.0,0.0,94,0.00,,,0.00,Wunderground v.1.15,2013-07-06 06:40:00,
2013-07-06 02:45:00,64.6,62.8,30.18,NW,313,0.0,0.0,94,0.00,,,0.00,Wunderground v.1.15,2013-07-06 06:45:00,
2013-07-06 02:55:00,64.7,62.9,30.18,NW,313,0.0,0.0,94,0.00,,,0.00,Wunderground v.1.15,2013-07-06 06:55:00,
2013-07-06 03:00:00,64.7,62.9,30.18,NW,313,0.0,0.0,94,0.00,,,0.00,Wunderground v.1.15,2013-07-06 07:00:00,
2013-07-06 03:05:00,64.7,62.9,30.17,NW,313,0.0,0.0,94,0.00,,,0.00,Wunderground v.1.15,2013-07-06 07:05:00,
2013-07-06 03:10:00,64.7,62.9,30.17,NW,313,0.0,0.0,94,0.00,,,0.00,Wunderground v.1.15,2013-07-06 07:10:00,
2013-07-06 03:20:00,64.7,62.9,30.18,NW,313,0.0,0.0,94,0.00,,,0.00,Wunderground v.1.15,2013-07-06 07:20:00,
2013-07-06 03:25:00,64.8,63.0,30.18,NW,313,0.0,0.0,94,0.00,,,0.00,Wunderground v.1.15,2013-07-06 07:25:00,
2013-07-06 03:30:00,64.8,63.0,30.17,NW,313,0.0,0.0,94,0.00,,,0.00,Wunderground v.1.15,2013-07-06 07:30:00,
2013-07-06 03:40:00,64.6,62.8,30.17,NW,313,0.0,0.0,94,0.00,,,0.00,Wunderground v.1.15,2013-07-06 07:40:00,
2013-07-06 03:45:00,64.5,62.7,30.17,NW,313,0.0,0.0,94,0.00,,,0.00,Wunderground v.1.15,2013-07-06 07:45:00,
2013-07-06 03:55:00,64.5,62.7,30.17,NW,313,0.0,0.0,94,0.00,,,0.00,Wunderground v.1.15,2013-07-06 07:55:00,
2013-07-06 04:05:00,64.3,62.5,30.17,NW,313,0.0,0.0,94,0.00,,,0.00,Wunderground v.1.15,2013-07-06 08:05:00,
2013-07-06 04:10:00,64.3,62.5,30.17,NW,313,0.0,0.0,94,0.00,,,0.00,Wunderground v.1.15,2013-07-06 08:10:00,
2013-07-06 04:15:00,64.3,62.5,30.17,NW,313,0.0,0.0,94,0.00,,,0.00,Wunderground v.1.15,2013-07-06 08:15:00,
2013-07-06 04:25:00,64.3,62.5,30.17,NW,313,0.0,0.0,94,0.00,,,0.00,Wunderground v.1.15,2013-07-06 08:25:00,
2013-07-06 04:30:00,64.4,62.6,30.17,NW,313,0.0,0.0,94,0.00,,,0.00,Wunderground v.1.15,2013-07-06 08:30:00,
2013-07-06 04:35:00,64.4,62.6,30.17,NW,313,0.0,0.0,94,0.00,,,0.00,Wunderground v.1.15,2013-07-06 08:35:00,
2013-07-06 04:40:00,64.4,62.6,30.17,NW,313,0.0,0.0,94,0.00,,,0.00,Wunderground v.1.15,2013-07-06 08:40:00,
2013-07-06 04:45:00,64.5,63.0,30.17,NW,313,0.0,0.0,95,0.00,,,0.00,Wunderground v.1.15,2013-07-06 08:45:00,
2013-07-06 04:55:00,64.5,63.0,30.17,NW,313,0.0,0.0,95,0.00,,,0.00,Wunderground v.1.15,2013-07-06 08:55:00,
2013-07-06 05:00:00,64.5,63.0,30.17,NW,313,0.0,0.0,95,0.00,,,0.00,Wunderground v.1.15,2013-07-06 09:00:00,
2013-07-06 05:10:00,64.7,63.2,30.17,NW,313,0.0,0.0,95,0.00,,,0.00,Wunderground v.1.15,2013-07-06 09:10:00,
2013-07-06 05:20:00,64.8,63.3,30.17,NW,313,0.0,0.0,95,0.00,,,0.00,Wunderground v.1.15,2013-07-06 09:20:00,
2013-07-06 05:25:00,64.8,63.3,30.17,NW,313,0.0,0.0,95,0.00,,,0.00,Wunderground v.1.15,2013-07-06 09:25:00,
2013-07-06 05:30:00,64.8,63.3,30.17,NW,313,0.0,0.0,95,0.00,,,0.00,Wunderground v.1.15,2013-07-06 09:30:00,
2013-07-06 05:40:00,64.7,63.2,30.17,NW,313,0.0,0.0,95,0.00,,,0.00,Wunderground v.1.15,2013-07-06 09:40:00,
2013-07-06 05:50:00,64.5,63.0,30.17,NW,313,0.0,0.0,95,0.00,,,0.00,Wunderground v.1.15,2013-07-06 09:50:00,
2013-07-06 05:55:00,64.6,63.1,30.17,NW,313,0.0,0.0,95,0.00,,,0.00,Wunderground v.1.15,2013-07-06 09:55:00,
2013-07-06 06:00:00,64.7,63.2,30.18,NW,313,0.0,0.0,95,0.00,,,0.00,Wunderground v.1.15,2013-07-06 10:00:00,
2013-07-06 06:10:00,64.7,63.2,30.18,NW,313,0.0,0.0,95,0.00,,,0.00,Wunderground v.1.15,2013-07-06 10:10:00,
2013-07-06 06:15:00,64.7,63.2,30.18,NW,313,0.0,0.0,95,0.00,,,0.00,Wunderground v.1.15,2013-07-06 10:15:00,
2013-07-06 06:25:00,64.8,63.3,30.18,NW,313,0.0,0.0,95,0.00,,,0.00,Wunderground v.1.15,2013-07-06 10:25:00,
2013-07-06 06:30:00,64.9,63.4,30.18,NW,313,0.0,0.0,95,0.00,,,0.00,Wunderground v.1.15,2013-07-06 10:30:00,
2013-07-06 06:40:00,65.1,63.6,30.18,NW,313,0.0,0.0,95,0.00,,,0.00,Wunderground v.1.15,2013-07-06 10:40:00,
2013-07-06 06:45:00,65.2,63.7,30.18,NW,313,0.0,0.0,95,0.00,,,0.00,Wunderground v.1.15,2013-07-06 10:45:00,
2013-07-06 06:55:00,65.4,63.9,30.17,NW,313,0.0,0.0,95,0.00,,,0.00,Wunderground v.1.15,2013-07-06 10:55:00,
2013-07-06 07:00:00,65.3,63.8,30.17,NW,313,0.0,0.0,95,0.00,,,0.00,Wunderground v.1.15,2013-07-06 11:00:00,
2013-07-06 07:05:00,65.4,63.9,30.17,NW,313,0.0,0.0,95,0.00,,,0.00,Wunderground v.1.15,2013-07-06 11:05:00,
2013-07-06 07:10:00,65.5,64.0,30.17,NW,313,0.0,0.0,95,0.00,,,0.00,Wunderground v.1.15,2013-07-06 11:10:00,
2013-07-06 07:20:00,65.7,64.2,30.18,NW,313,0.0,0.0,95,0.00,,,0.00,Wunderground v.1.15,2013-07-06 11:20:00,
2013-07-06 07:25:00,65.8,64.3,30.18,NW,313,0.0,0.0,95,0.00,,,0.00,Wunderground v.1.15,2013-07-06 11:25:00,
2013-07-06 07:35:00,65.9,64.4,30.18,NW,313,0.0,0.0,95,0.00,,,0.00,Wunderground v.1.15,2013-07-06 11:35:00,
2013-07-06 07:40:00,66.1,64.6,30.18,NW,313,0.0,0.0,95,0.00,,,0.00,Wunderground v.1.15,2013-07-06 11:40:00,
2013-07-06 07:50:00,66.6,65.1,30.18,NW,313,0.0,0.0,95,0.00,,,0.00,Wunderground v.1.15,2013-07-06 11:50:00,
2013-07-06 07:55:00,66.8,65.3,30.18,NW,313,0.0,0.0,95,0.00,,,0.00,Wunderground v.1.15,2013-07-06 11:55:00,
2013-07-06 08:00:00,67.0,65.5,30.18,NW,313,0.0,0.0,95,0.00,,,0.00,Wunderground v.1.15,2013-07-06 12:00:00,
2013-07-06 08:10:00,67.5,66.0,30.18,NW,313,0.0,0.0,95,0.00,,,0.00,Wunderground v.1.15,2013-07-06 12:10:00,
2013-07-06 08:15:00,67.6,66.1,30.18,NW,313,0.0,0.0,95,0.00,,,0.00,Wunderground v.1.15,2013-07-06 12:15:00,
2013-07-06 08:25:00,67.8,66.3,30.18,NW,313,0.0,0.0,95,0.00,,,0.00,Wunderground v.1.15,2013-07-06 12:25:00,
2013-07-06 08:30:00,68.0,66.5,30.18,NW,313,0.0,0.0,95,0.00,,,0.00,Wunderground v.1.15,2013-07-06 12:30:00,
2013-07-06 08:40:00,68.2,66.7,30.18,NW,313,0.0,0.0,95,0.00,,,0.00,Wunderground v.1.15,2013-07-06 12:40:00,
2013-07-06 08:45:00,68.4,66.9,30.18,NW,313,0.0,0.0,95,0.00,,,0.00,Wunderground v.1.15,2013-07-06 12:45:00,
2013-07-06 08:55:00,69.1,67.6,30.18,NW,313,0.0,0.0,95,0.00,,,0.00,Wunderground v.1.15,2013-07-06 12:55:00,
2013-07-06 09:00:00,69.3,67.8,30.18,NW,313,0.0,0.0,95,0.00,,,0.00,Wunderground v.1.15,2013-07-06 13:00:00,
2013-07-06 09:10:00,70.5,68.7,30.18,NW,313,0.0,0.0,94,0.00,,,0.00,Wunderground v.1.15,2013-07-06 13:10:00,
2013-07-06 09:15:00,71.2,69.4,30.19,NW,313,0.0,0.0,94,0.00,,,0.00,Wunderground v.1.15,2013-07-06 13:15:00,
2013-07-06 09:25:00,72.4,69.9,30.18,NNW,344,0.0,0.0,92,0.00,,,0.00,Wunderground v.1.15,2013-07-06 13:25:00,
2013-07-06 09:30:00,73.1,70.3,30.18,NNW,345,0.0,0.0,91,0.00,,,0.00,Wunderground v.1.15,2013-07-06 13:30:00,
2013-07-06 09:40:00,74.4,70.6,30.18,East,90,0.0,0.0,88,0.00,,,0.00,Wunderground v.1.15,2013-07-06 13:40:00,
2013-07-06 09:45:00,75.1,71.0,30.18,East,90,0.0,0.0,87,0.00,,,0.00,Wunderground v.1.15,2013-07-06 13:45:00,
2013-07-06 09:50:00,75.8,70.3,30.18,East,90,0.0,0.0,83,0.00,,,0.00,Wunderground v.1.15,2013-07-06 13:50:00,
2013-07-06 09:55:00,76.3,70.4,30.18,East,90,0.0,0.0,82,0.00,,,0.00,Wunderground v.1.15,2013-07-06 13:55:00,
2013-07-06 10:00:00,77.1,71.5,30.18,East,90,0.0,0.0,83,0.00,,,0.00,Wunderground v.1.15,2013-07-06 14:00:00,
2013-07-06 10:10:00,78.0,72.8,30.18,East,90,0.0,0.0,84,0.00,,,0.00,Wunderground v.1.15,2013-07-06 14:10:00,
2013-07-06 10:15:00,78.1,71.8,30.18,ENE,62,0.0,1.0,81,0.00,,,0.00,Wunderground v.1.15,2013-07-06 14:15:00,
2013-07-06 10:25:00,78.6,71.5,30.17,East,84,0.0,1.0,79,0.00,,,0.00,Wunderground v.1.15,2013-07-06 14:25:00,
2013-07-06 10:30:00,79.1,72.4,30.17,East,82,1.0,1.0,80,0.00,,,0.00,Wunderground v.1.15,2013-07-06 14:30:00,
2013-07-06 10:40:00,78.8,71.0,30.17,NE,55,1.0,3.0,77,0.00,,,0.00,Wunderground v.1.15,2013-07-06 14:40:00,
2013-07-06 10:45:00,78.6,70.8,30.17,NE,52,2.0,3.0,77,0.00,,,0.00,Wunderground v.1.15,2013-07-06 14:45:00,
2013-07-06 10:55:00,78.2,70.0,30.17,NE,37,3.0,3.0,76,0.00,,,0.00,Wunderground v.1.15,2013-07-06 14:55:00,
2013-07-06 11:00:00,78.1,69.5,30.17,NE,53,3.0,4.0,75,0.00,,,0.00,Wunderground v.1.15,2013-07-06 15:00:00,
2013-07-06 11:10:00,78.3,70.5,30.17,NE,53,2.0,3.0,77,0.00,,,0.00,Wunderground v.1.15,2013-07-06 15:10:00,
2013-07-06 11:15:00,78.8,70.6,30.17,North,355,2.0,3.0,76,0.00,,,0.00,Wunderground v.1.15,2013-07-06 15:15:00,
2013-07-06 11:25:00,79.9,71.3,30.17,NNW,342,2.0,2.0,75,0.00,,,0.00,Wunderground v.1.15,2013-07-06 15:25:00,
2013-07-06 11:30:00,80.1,70.7,30.17,NE,54,1.0,2.0,73,0.00,,,0.00,Wunderground v.1.15,2013-07-06 15:30:00,
2013-07-06 11:40:00,79.8,70.8,30.17,NNE,16,1.0,2.0,74,0.00,,,0.00,Wunderground v.1.15,2013-07-06 15:40:00,
2013-07-06 11:45:00,80.0,70.2,30.17,North,355,1.0,2.0,72,0.00,,,0.00,Wunderground v.1.15,2013-07-06 15:45:00,
2013-07-06 11:50:00,80.6,71.5,30.17,NNE,13,1.0,1.0,74,0.00,,,0.00,Wunderground v.1.15,2013-07-06 15:50:00,
2013-07-06 11:55:00,81.1,71.2,30.16,NNE,33,1.0,5.0,72,0.00,,,0.00,Wunderground v.1.15,2013-07-06 15:55:00,
2013-07-06 12:05:00,80.7,69.2,30.16,NE,44,3.0,4.0,68,0.00,,,0.00,Wunderground v.1.15,2013-07-06 16:05:00,
2013-07-06 12:15:00,81.4,70.7,30.16,NE,34,2.0,3.0,70,0.00,,,0.00,Wunderground v.1.15,2013-07-06 16:15:00,
2013-07-06 12:20:00,81.6,69.1,30.16,NE,44,2.0,2.0,66,0.00,,,0.00,Wunderground v.1.15,2013-07-06 16:20:00,
2013-07-06 12:25:00,81.4,68.5,30.16,NE,43,3.0,3.0,65,0.00,,,0.00,Wunderground v.1.15,2013-07-06 16:25:00,
2013-07-06 12:30:00,81.6,70.9,30.16,NNE,20,3.0,3.0,70,0.00,,,0.00,Wunderground v.1.15,2013-07-06 16:30:00,
2013-07-06 12:40:00,82.0,71.2,30.15,North,360,2.0,4.0,70,0.00,,,0.00,Wunderground v.1.15,2013-07-06 16:40:00,
2013-07-06 12:45:00,82.0,71.2,30.15,NE,39,2.0,4.0,70,0.00,,,0.00,Wunderground v.1.15,2013-07-06 16:45:00,
2013-07-06 12:55:00,82.6,71.0,30.15,NW,304,1.0,2.0,68,0.00,,,0.00,Wunderground v.1.15,2013-07-06 16:55:00,
2013-07-06 13:05:00,82.8,71.2,30.14,NE,45,2.0,2.0,68,0.00,,,0.00,Wunderground v.1.15,2013-07-06 17:05:00,
2013-07-06 13:10:00,82.9,68.1,30.14,NNE,24,2.0,2.0,61,0.00,,,0.00,Wunderground v.1.15,2013-07-06 17:10:00,
2013-07-06 13:30:00,82.7,67.4,30.14,NNE,20,2.0,2.0,60,0.00,,,0.00,Wunderground v.1.15,2013-07-06 17:30:00,
2013-07-06 13:40:00,83.4,70.4,30.14,NNW,346,1.0,1.0,65,0.00,,,0.00,Wunderground v.1.15,2013-07-06 17:40:00,
2013-07-06 14:00:00,83.8,67.4,30.13,SSE,165,1.0,1.0,58,0.00,,,0.00,Wunderground v.1.15,2013-07-06 18:00:00,
2013-07-06 14:10:00,84.3,68.9,30.13,WSW,246,0.0,1.0,60,0.00,,,0.00,Wunderground v.1.15,2013-07-06 18:10:00,
2013-07-06 14:15:00,83.9,70.0,30.13,NW,320,1.0,1.0,63,0.00,,,0.00,Wunderground v.1.15,2013-07-06 18:15:00,
2013-07-06 14:20:00,84.0,69.6,30.13,NE,46,1.0,1.0,62,0.00,,,0.00,Wunderground v.1.15,2013-07-06 18:20:00,
2013-07-06 14:25:00,83.8,73.8,30.12,North,11,1.0,2.0,72,0.00,,,0.00,Wunderground v.1.15,2013-07-06 18:25:00,
2013-07-06 14:35:00,82.9,69.9,30.12,NE,34,2.0,3.0,65,0.00,,,0.00,Wunderground v.1.15,2013-07-06 18:35:00,
2013-07-06 14:40:00,82.7,69.7,30.12,NNE,29,2.0,5.0,65,0.00,,,0.00,Wunderground v.1.15,2013-07-06 18:40:00,
2013-07-06 14:50:00,81.0,69.9,30.12,NE,49,3.0,3.0,69,0.00,,,0.00,Wunderground v.1.15,2013-07-06 18:50:00,
2013-07-06 14:55:00,80.7,70.0,30.11,NE,43,3.0,4.0,70,0.00,,,0.00,Wunderground v.1.15,2013-07-06 18:55:00,
2013-07-06 15:00:00,81.5,69.5,30.11,ENE,63,3.0,3.0,67,0.00,,,0.00,Wunderground v.1.15,2013-07-06 19:00:00,
2013-07-06 15:10:00,81.8,70.2,30.10,ENE,59,3.0,3.0,68,0.00,,,0.00,Wunderground v.1.15,2013-07-06 19:10:00,
2013-07-06 15:15:00,81.8,71.5,30.10,NE,55,3.0,3.0,71,0.00,,,0.00,Wunderground v.1.15,2013-07-06 19:15:00,
2013-07-06 15:25:00,81.6,70.0,30.10,NE,53,3.0,3.0,68,0.00,,,0.00,Wunderground v.1.15,2013-07-06 19:25:00,
2013-07-06 15:30:00,81.6,70.4,30.09,NNE,32,3.0,3.0,69,0.00,,,0.00,Wunderground v.1.15,2013-07-06 19:30:00,
2013-07-06 15:40:00,81.0,70.7,30.10,ENE,66,1.0,2.0,71,0.00,,,0.00,Wunderground v.1.15,2013-07-06 19:40:00,
2013-07-06 15:45:00,80.7,72.0,30.09,NE,45,2.0,2.0,75,0.00,,,0.00,Wunderground v.1.15,2013-07-06 19:45:00,
2013-07-06 15:55:00,80.3,71.6,30.10,ESE,103,1.0,2.0,75,0.00,,,0.00,Wunderground v.1.15,2013-07-06 19:55:00,
2013-07-06 16:00:00,80.5,71.8,30.10,ESE,103,0.0,0.0,75,0.00,,,0.00,Wunderground v.1.15,2013-07-06 20:00:00,
2013-07-06 16:10:00,81.0,71.9,30.10,ENE,71,1.0,1.0,74,0.00,,,0.00,Wunderground v.1.15,2013-07-06 20:10:00,
2013-07-06 16:15:00,80.9,71.8,30.10,ENE,65,1.0,2.0,74,0.00,,,0.00,Wunderground v.1.15,2013-07-06 20:15:00,
2013-07-06 16:20:00,80.7,71.2,30.10,NE,49,1.0,2.0,73,0.00,,,0.00,Wunderground v.1.15,2013-07-06 20:20:00,
2013-07-06 16:25:00,80.4,71.3,30.10,NE,49,1.0,2.0,74,0.00,,,0.00,Wunderground v.1.15,2013-07-06 20:25:00,
2013-07-06 16:35:00,80.1,72.6,30.09,ENE,73,1.0,2.0,78,0.00,,,0.00,Wunderground v.1.15,2013-07-06 20:35:00,
2013-07-06 16:40:00,80.0,70.6,30.09,North,360,2.0,2.0,73,0.00,,,0.00,Wunderground v.1.15,2013-07-06 20:40:00,
2013-07-06 16:55:00,80.5,72.2,30.09,ESE,114,1.0,2.0,76,0.00,,,0.00,Wunderground v.1.15,2013-07-06 20:55:00,
2013-07-06 17:10:00,81.2,72.1,30.08,ENE,78,1.0,2.0,74,0.00,,,0.00,Wunderground v.1.15,2013-07-06 21:10:00,
2013-07-06 17:15:00,81.6,72.1,30.08,East,91,0.0,2.0,73,0.00,,,0.00,Wunderground v.1.15,2013-07-06 21:15:00,
2013-07-06 17:25:00,81.9,72.0,30.07,NE,50,1.0,1.0,72,0.00,,,0.00,Wunderground v.1.15,2013-07-06 21:25:00,
2013-07-06 17:30:00,82.1,71.3,30.07,NE,49,2.0,2.0,70,0.00,,,0.00,Wunderground v.1.15,2013-07-06 21:30:00,
2013-07-06 17:45:00,81.4,71.5,30.08,SE,132,1.0,1.0,72,0.00,,,0.00,Wunderground v.1.15,2013-07-06 21:45:00,
2013-07-06 17:55:00,81.9,73.2,30.08,East,90,1.0,1.0,75,0.00,,,0.00,Wunderground v.1.15,2013-07-06 21:55:00,
2013-07-06 18:00:00,81.3,73.0,30.08,ENE,58,0.0,0.0,76,0.00,,,0.00,Wunderground v.1.15,2013-07-06 22:00:00,
2013-07-06 18:10:00,79.6,72.1,30.08,ENE,61,0.0,0.0,78,0.00,,,0.00,Wunderground v.1.15,2013-07-06 22:10:00,
2013-07-06 18:25:00,77.8,71.5,30.07,ENE,61,0.0,0.0,81,0.00,,,0.00,Wunderground v.1.15,2013-07-06 22:25:00,
2013-07-06 18:30:00,77.4,71.5,30.08,ENE,61,0.0,0.0,82,0.00,,,0.00,Wunderground v.1.15,2013-07-06 22:30:00,
2013-07-06 18:40:00,76.7,71.1,30.08,ENE,61,0.0,0.0,83,0.00,,,0.00,Wunderground v.1.15,2013-07-06 22:40:00,
2013-07-06 18:45:00,76.2,71.0,30.08,ENE,61,0.0,0.0,84,0.00,,,0.00,Wunderground v.1.15,2013-07-06 22:45:00,
2013-07-06 18:55:00,75.5,71.0,30.08,ENE,61,0.0,0.0,86,0.00,,,0.00,Wunderground v.1.15,2013-07-06 22:55:00,
2013-07-06 19:00:00,75.3,70.8,30.08,ENE,61,0.0,0.0,86,0.00,,,0.00,Wunderground v.1.15,2013-07-06 23:00:00,
2013-07-06 19:10:00,75.4,71.3,30.07,ENE,61,0.0,0.0,87,0.00,,,0.00,Wunderground v.1.15,2013-07-06 23:10:00,
2013-07-06 19:15:00,76.2,72.0,30.08,ENE,61,0.0,0.0,87,0.00,,,0.00,Wunderground v.1.15,2013-07-06 23:15:00,
2013-07-06 19:20:00,76.3,71.5,30.08,ENE,61,0.0,0.0,85,0.00,,,0.00,Wunderground v.1.15,2013-07-06 23:20:00,
2013-07-06 19:25:00,76.0,71.2,30.09,ENE,61,0.0,0.0,85,0.00,,,0.00,Wunderground v.1.15,2013-07-06 23:25:00,
2013-07-06 19:40:00,75.5,71.0,30.09,ENE,61,0.0,0.0,86,0.00,,,0.00,Wunderground v.1.15,2013-07-06 23:40:00,
2013-07-06 19:45:00,75.2,70.7,30.09,ENE,61,0.0,0.0,86,0.00,,,0.00,Wunderground v.1.15,2013-07-06 23:45:00,
2013-07-06 20:00:00,74.7,70.6,30.10,ENE,61,0.0,0.0,87,0.00,,,0.00,Wunderground v.1.15,2013-07-07 00:00:00,
2013-07-06 20:10:00,74.2,70.1,30.11,ENE,61,0.0,0.0,87,0.00,,,0.00,Wunderground v.1.15,2013-07-07 00:10:00,
2013-07-06 20:15:00,74.0,70.2,30.11,ENE,61,0.0,0.0,88,0.00,,,0.00,Wunderground v.1.15,2013-07-07 00:15:00,
2013-07-06 20:25:00,73.3,69.5,30.11,ENE,61,0.0,0.0,88,0.00,,,0.00,Wunderground v.1.15,2013-07-07 00:25:00,
2013-07-06 20:30:00,73.2,69.4,30.12,ENE,61,0.0,0.0,88,0.00,,,0.00,Wunderground v.1.15,2013-07-07 00:30:00,
2013-07-06 20:40:00,72.8,69.0,30.13,ENE,61,0.0,0.0,88,0.00,,,0.00,Wunderground v.1.15,2013-07-07 00:40:00,
2013-07-06 20:50:00,72.5,69.1,30.13,ENE,61,0.0,0.0,89,0.00,,,0.00,Wunderground v.1.15,2013-07-07 00:50:00,
2013-07-06 20:55:00,72.3,68.9,30.14,ENE,61,0.0,0.0,89,0.00,,,0.00,Wunderground v.1.15,2013-07-07 00:55:00,
2013-07-06 21:20:00,71.9,68.8,30.14,ENE,61,0.0,0.0,90,0.00,,,0.00,Wunderground v.1.15,2013-07-07 01:20:00,
2013-07-06 21:25:00,71.8,68.7,30.14,ENE,61,0.0,1.0,90,0.00,,,0.00,Wunderground v.1.15,2013-07-07 01:25:00,
2013-07-06 21:35:00,71.7,68.9,30.14,ENE,61,0.0,0.0,91,0.00,,,0.00,Wunderground v.1.15,2013-07-07 01:35:00,
2013-07-06 21:40:00,71.7,68.9,30.14,ENE,61,0.0,0.0,91,0.00,,,0.00,Wunderground v.1.15,2013-07-07 01:40:00,
2013-07-06 22:00:00,70.9,68.1,30.15,ENE,61,0.0,0.0,91,0.09,,,0.02,Wunderground v.1.15,2013-07-07 02:00:00,
2013-07-06 22:30:00,69.6,67.2,30.15,ENE,62,0.0,0.0,92,0.00,,,0.02,Wunderground v.1.15,2013-07-07 02:30:00,
2013-07-06 22:40:00,69.5,67.1,30.16,ENE,63,0.0,0.0,92,0.00,,,0.02,Wunderground v.1.15,2013-07-07 02:40:00,
2013-07-06 22:45:00,69.4,67.0,30.16,ENE,63,0.0,0.0,92,0.00,,,0.02,Wunderground v.1.15,2013-07-07 02:45:00,
2013-07-06 23:00:00,69.4,67.3,30.16,ENE,62,0.0,0.0,93,0.00,,,0.02,Wunderground v.1.15,2013-07-07 03:00:00,
2013-07-06 23:10:00,69.5,67.4,30.16,ENE,63,0.0,0.0,93,0.00,,,0.02,Wunderground v.1.15,2013-07-07 03:10:00,
2013-07-06 23:20:00,69.4,67.3,30.16,ENE,63,0.0,0.0,93,0.00,,,0.02,Wunderground v.1.15,2013-07-07 03:20:00,
2013-07-06 23:25:00,69.3,67.2,30.16,ENE,63,0.0,0.0,93,0.00,,,0.02,Wunderground v.1.15,2013-07-07 03:25:00,
2013-07-06 23:30:00,69.3,67.2,30.16,ENE,62,0.0,0.0,93,0.00,,,0.02,Wunderground v.1.15,2013-07-07 03:30:00,
2013-07-06 23:55:00,69.3,67.2,30.16,ENE,62,0.0,0.0,93,0.05,,,0.04,Wunderground v.1.15,2013-07-07 03:55:00,